CAPE
0 0 0 0 0 0 0 0 0 0 0 0 0 0 0 0 0 0 0 0 0 4 23 199 303 858 1410 1134 998 973 1335 1485 1599 1841 2043 2010 2074 2173 2274 2330 2344 2265 2279 2390
0 0 0 0 0 0 0 0 0 0 0 0 0 0 0 0 0 0 0 0 0 0 0 315 604 895 1081 1161 1030 1073 1412 1523 1691 1957 2182 2072 2134 2244 2332 2340 2465 2468 2326 2317
0 0 0 0 0 0 0 0 0 0 0 0 0 0 0 0 0 0 0 0 0 0 0 97 713 800 941 1167 1028 1172 1373 1656 1836 2017 2133 2214 2233 2281 2324 2367 2404 2443 2383 2360
0 0 0 0 0 0 0 0 0 0 0 0 0 0 0 0 0 0 0 0 0 0 0 26 121 169 874 941 1176 1210 1422 1552 1916 2046 2090 2261 2323 2302 2425 2498 2394 2557 2574 2515
0 0 0 0 0 0 0 0 0 0 0 0 0 0 0 0 0 0 0 0 0 0 0 0 0 12 400 913 1049 1221 1489 1427 1771 2029 2078 2258 2276 2286 2606 2439 2512 2483 2472 2604
0 0 0 0 0 0 0 0 0 0 0 0 0 0 0 0 0 0 0 0 0 0 0 0 0 0 264 911 1128 1257 1469 1520 1860 2103 2267 2231 2315 2512 2477 2448 2336 2278 2286 2510
0 0 0 0 0 0 0 0 0 0 0 0 1 0 0 0 0 0 0 0 0 0 0 0 0 84 277 846 894 1030 1661 1755 2046 2342 2455 2501 2603 2567 2479 2403 2239 2302 2237 2350
0 0 0 0 0 0 6 0 0 0 0 0 0 7 53 98 22 0 0 0 0 0 0 0 112 257 393 543 510 1793 1837 1831 2143 2483 2387 2186 2602 2615 2615 2610 2562 2454 2438 2227
0 0 0 0 0 0 0 0 0 0 0 0 0 0 0 292 460 283 177 40 0 1 0 45 316 462 273 547 1534 1652 1870 2129 2385 2530 2523 2248 2633 2693 2576 2654 2410 2516 2455 2355
17 0 0 0 0 0 0 0 0 0 0 0 0 0 0 470 826 680 622 93 278 64 49 756 1341 1337 1006 1325 1809 1967 2068 2158 2432 2760 2825 2712 2620 2706 2652 2598 2680 2464 2300 2092
12 5 4 7 0 0 0 6 0 0 0 0 0 0 0 714 1239 895 545 1981 1366 1332 2018 2323 2399 2377 2050 1922 1949 1778 2093 2352 2619 2761 2703 3000 2568 2434 2947 2851 2683 2843 2857 2750
0 0 2 1 0 0 0 0 0 0 0 0 0 0 88 1193 1584 1921 1857 1864 2148 2423 2914 3504 3294 2770 3086 2301 2199 2417 2624 2694 2691 2763 2956 3073 2374 1713 292 936 1744 1904 2502 3050
0 0 7 5 0 0 0 0 0 0 0 0 0 0 637 747 787 763 970 943 1190 1419 1582 1912 2072 2168 2232 2737 2945 2721 2315 2128 1919 1874 1592 1611 1971 2222 1778 268 175 429 524 807
0 6 4 4 2 0 0 0 0 0 1 0 0 74 170 145 75 278 321 338 506 733 1066 1499 1568 1653 1630 1776 1852 1726 1212 1094 1582 1194 1564 1842 1908 1731 988 843 533 6 0 0
1 0 0 1 2 0 0 0 0 0 1 0 4 52 49 77 27 8 91 152 34 51 113 368 511 521 921 1401 1422 1297 1189 1192 1105 1026 1136 906 1055 887 454 91 23 2 0 0
0 3 1 2 1 4 0 0 18 64 2 0 59 40 6 14 9 11 5 2 24 69 15 22 32 103 283 346 440 529 474 510 793 595 352 227 114 100 70 50 27 0 1 3
4 3 4 8 9 2 0 39 70 0 0 1 38 34 76 41 27 1 3 3 2 3 6 120 206 205 286 384 309 326 352 229 311 445 329 245 225 161 177 381 239 1 2 2
2 5 147 45 1 6 51 67 27 25 1 9 9 1 1 1 0 0 0 0 0 0 0 0 87 290 374 234 130 140 235 272 351 360 286 156 66 29 1 0 2 2 3 0
3 14 79 32 3 46 86 26 5 2 3 2 1 0 0 0 0 0 0 0 0 0 0 0 0 17 64 39 160 260 312 249 219 161 68 30 23 0 2 3 3 1 4 2
3 3 3 4 3 3 2 4 0 0 4 1 0 0 0 0 0 0 0 0 0 0 0 0 0 0 0 6 116 227 238 209 212 223 180 105 5 4 0 0 3 1 2 0
1 1 2 3 2 1 1 1 1 6 7 0 0 0 0 0 0 0 0 0 0 0 0 0 0 0 0 0 0 3 123 144 88 28 22 25 22 16 18 2 0 0 2 1
1 0 0 0 0 2 1 2 0 0 0 0 0 0 0 0 0 0 0 0 0 0 0 0 0 0 0 0 2 23 28 16 87 41 30 14 10 4 2 4 8 0 8 22
0 0 0 0 1 1 0 0 0 0 0 0 0 0 0 0 0 0 0 0 0 0 0 0 0 0 0 0 0 0 0 1 1 1 6 1 1 2 2 0 0 2 1 5
0 0 0 0 0 0 0 0 0 0 0 0 0 0 0 0 0 0 0 0 0 0 0 0 0 0 0 0 0 0 0 0 0 0 0 0 0 0 1 0 0 0 0 0
0 0 0 0 0 0 0 0 0 0 0 0 0 0 0 0 0 0 0 0 0 0 0 0 0 0 0 0 0 0 0 0 0 0 0 0 0 0 0 0 0 0 0 0
0 0 0 0 0 0 0 0 0 0 0 0 0 0 0 0 0 0 0 0 0 0 0 0 0 0 0 0 0 0 0 0 0 0 0 0 0 0 0 0 0 0 0 0
0 0 0 0 0 0 0 0 0 0 0 0 0 0 0 0 0 0 0 0 0 0 0 0 0 0 0 0 0 0 0 0 0 0 0 0 0 0 0 0 0 0 0 0
CIN
0 0 0 0 0 0 0 0 0 0 0 0 0 0 0 0 0 0 0 0 0 -60 -191 -179 -199 -250 -305 -325 -311 -276 -313 -313 -354 -362 -326 -282 -259 -242 -225 -191 -179 -161 -127 -102
0 0 0 0 0 0 0 0 0 0 0 0 0 0 0 0 0 0 0 0 0 0 -4 -162 -211 -272 -324 -398 -380 -369 -305 -366 -359 -387 -352 -364 -319 -282 -244 -236 -198 -181 -175 -152
0 0 0 0 0 0 0 0 0 0 0 0 0 0 0 0 0 0 0 0 0 0 0 -188 -185 -254 -313 -408 -433 -428 -419 -377 -383 -396 -384 -389 -350 -310 -316 -295 -233 -237 -232 -206
0 0 0 0 0 0 0 0 0 0 0 0 0 0 0 0 0 0 0 0 0 0 0 -86 -189 -194 -315 -351 -461 -469 -462 -427 -419 -409 -417 -384 -368 -386 -371 -310 -312 -273 -262 -246
0 0 0 0 0 0 0 0 0 0 0 0 0 0 0 0 0 0 0 0 0 0 0 0 0 -30 -266 -353 -418 -466 -483 -473 -465 -442 -442 -427 -442 -454 -357 -306 -268 -228 -186 -174
0 0 0 0 0 0 0 0 0 0 0 0 0 0 0 0 0 0 0 0 0 0 0 0 0 0 -266 -342 -374 -426 -436 -454 -461 -443 -442 -457 -447 -381 -355 -329 -309 -264 -241 -207
0 0 0 0 0 0 0 0 0 0 0 0 -161 0 0 0 0 0 0 0 0 0 0 0 0 -450 -305 -338 -365 -368 -420 -442 -439 -427 -447 -428 -390 -364 -345 -329 -287 -299 -306 -244
0 0 0 0 0 -1 -10 0 0 0 0 0 0 -239 -582 -552 -548 0 0 0 0 0 0 0 -422 -488 -386 -372 -341 -402 -439 -441 -437 -450 -450 -428 -395 -342 -306 -295 -279 -313 -341 -371
0 0 0 0 0 0 0 0 0 0 0 0 0 0 0 -457 -403 -478 -515 -397 0 -159 0 -542 -535 -549 -484 -382 -409 -446 -476 -465 -453 -450 -434 -417 -380 -344 -327 -298 -304 -298 -286 -336
-3 0 0 0 0 0 0 0 0 0 0 0 0 0 0 -326 -268 -332 -304 -435 -338 -472 -65 -366 -418 -442 -425 -412 -436 -460 -485 -476 -446 -414 -405 -400 -364 -327 -316 -306 -284 -283 -287 -309
-3 -5 -5 -5 0 0 0 -2 0 0 0 0 0 0 0 -262 -218 -250 -311 -204 -266 -257 -266 -334 -382 -377 -409 -473 -507 -475 -445 -415 -394 -383 -419 -340 -367 -360 -256 -237 -227 -163 -138 -124
0 0 -4 -4 0 0 0 0 0 0 0 0 0 0 -258 -120 -111 -147 -191 -212 -204 -223 -191 -150 -242 -376 -321 -432 -421 -372 -341 -347 -331 -292 -342 -294 -409 -511 -939 -676 -441 -381 -240 -108
0 0 -6 -5 0 0 0 0 0 0 0 0 0 0 -83 -92 -152 -235 -275 -330 -314 -319 -332 -337 -360 -399 -424 -360 -328 -322 -327 -421 -462 -477 -528 -507 -396 -302 -366 -797 -825 -690 -611 -491
-1 -2 -1 -2 -2 -1 0 0 0 0 0 0 0 -162 -164 -263 -347 -293 -316 -358 -357 -369 -323 -292 -331 -345 -416 -429 -440 -459 -590 -626 -498 -588 -458 -343 -283 -296 -451 -454 -514 -587 0 0
0 0 0 -2 -2 -1 0 0 0 0 -1 0 -7 -94 -208 -297 -292 -193 -327 -317 -521 -530 -509 -454 -469 -500 -417 -371 -412 -453 -492 -504 -524 -510 -453 -468 -371 -363 -443 -578 -293 0 0 0
0 0 0 0 -1 -1 -1 0 -11 -1 0 0 -38 -136 -56 -181 -209 -309 -335 0 -477 -404 -511 -547 -551 -538 -496 -523 -552 -550 -555 -533 -439 -478 -539 -583 -603 -558 -527 -483 -372 0 0 0
0 0 0 0 0 0 0 -28 -11 -1 0 -1 -114 -41 -35 -84 -226 0 0 0 0 0 -348 -310 -290 -318 -340 -343 -393 -411 -428 -481 -423 -357 -389 -401 -373 -348 -288 -198 -218 0 0 0
-6 -78 -1 -33 0 -7 -4 -6 -18 -7 0 -181 -3 -32 0 0 -1 0 0 0 0 0 0 0 -236 -157 -145 -207 -301 -312 -313 -302 -229 -208 -238 -274 -309 -254 0 0 0 0 0 0
0 -9 0 -13 -8 -6 0 -1 0 0 0 0 0 0 0 0 0 0 0 0 0 0 0 0 0 -196 -149 -180 -118 -95 -109 -183 -144 -149 -204 -267 -244 0 0 0 0 0 0 0
0 0 0 0 0 0 -3 -20 0 0 0 0 0 0 0 0 0 0 0 0 0 0 0 0 0 0 0 -24 -51 -105 -67 -44 -19 -10 -8 -25 -10 -1 0 0 0 0 0 0
0 0 0 0 0 0 0 0 0 0 0 0 0 0 0 0 0 0 0 0 0 0 0 0 0 0 0 0 0 -81 -12 -4 -25 -35 -39 -40 -41 -69 -76 0 0 -1 -3 -3
-21 0 0 0 0 0 0 0 0 0 0 0 0 0 0 0 0 0 0 0 0 0 0 0 0 0 0 0 -13 -4 -3 -6 -1 -6 -40 -89 -40 0 0 0 0 0 -8 -8
0 0 0 0 0 0 0 0 0 0 0 0 0 0 0 0 0 0 0 0 0 0 0 0 0 0 0 0 0 0 0 0 -1 -1 -2 -1 0 0 0 0 0 0 0 0
0 0 0 0 0 0 0 0 0 0 0 0 0 0 0 0 0 0 0 0 0 0 0 0 0 0 0 0 0 0 0 0 0 0 0 0 0 0 -2 0 0 0 0 0
0 0 0 0 0 0 0 0 0 0 0 0 0 0 0 0 0 0 0 0 0 0 0 0 0 0 0 0 0 0 0 0 0 0 0 0 0 0 0 0 0 0 0 0
0 0 0 0 0 0 0 0 0 0 0 0 0 0 0 0 0 0 0 0 0 0 0 0 0 0 0 0 0 0 0 0 0 0 0 0 0 0 0 0 0 0 0 0
0 0 0 0 0 0 0 0 0 0 0 0 0 0 0 0 0 0 0 0 0 0 0 0 0 0 0 0 0 0 0 0 0 0 0 -1 -1 -1 0 -1 0 0 0 0
Wind_Speed
40 33 32 37 46 43 49 46 56 44 45 42 27 23 20 20 21 18 18 22 27 27 26 25 19 11 15 22 21 23 23 25 27 25 24 24 24 24 23 23 23 22 21 23
45 38 36 40 40 43 47 54 53 53 49 35 31 34 40 35 34 33 32 32 29 29 29 26 22 11 10 16 22 22 27 31 26 22 20 23 22 22 23 24 24 24 25 25
48 41 43 52 50 46 45 44 44 54 44 42 43 38 35 35 33 33 35 33 30 26 29 30 23 18 11 12 15 19 24 24 23 23 23 20 19 19 23 23 20 24 25 25
41 39 57 48 37 42 50 46 43 44 41 40 40 42 41 40 41 43 43 39 35 33 28 27 28 26 23 14 15 18 19 21 21 22 21 18 18 22 21 19 21 21 22 22
48 49 38 36 32 35 37 42 40 43 43 42 43 44 46 42 40 41 42 43 40 38 36 35 32 29 23 18 15 17 19 20 20 19 18 18 20 21 18 17 18 19 20 20
40 53 55 36 40 33 32 44 28 29 33 36 38 45 40 36 36 38 40 40 42 43 43 42 43 31 17 17 17 16 18 19 16 17 17 20 17 18 18 19 18 19 21 24
51 52 45 39 23 26 43 31 24 26 29 31 34 38 40 42 42 37 35 35 35 38 40 41 33 26 20 17 15 18 18 15 15 15 15 14 14 16 16 17 19 19 23 24
52 57 64 36 36 38 28 31 30 31 30 32 34 35 37 40 44 45 43 40 38 37 33 30 25 21 20 18 15 22 20 18 17 15 15 15 17 17 19 19 19 22 22 22
46 50 43 36 42 39 38 39 38 38 36 36 37 37 38 41 41 44 44 40 37 35 31 25 21 19 20 27 24 19 19 19 19 17 16 16 15 15 16 16 18 18 19 20
49 53 53 47 47 46 43 45 43 41 43 41 42 42 43 41 40 38 39 38 34 31 28 25 23 21 22 22 22 21 20 20 20 17 16 15 13 13 13 16 17 20 21 24
50 51 52 53 51 50 47 43 46 45 43 43 43 46 45 46 43 38 34 29 27 24 22 21 21 20 17 14 14 16 19 20 18 17 14 14 15 17 15 18 19 20 22 24
53 46 47 49 47 45 47 48 48 48 49 48 47 49 48 44 37 30 28 25 22 20 17 14 15 16 15 12 12 13 13 14 15 15 14 15 16 18 20 22 23 24 24 25
46 47 50 50 46 48 51 51 49 48 47 45 43 42 36 31 27 24 22 19 18 16 15 14 12 12 12 12 9 9 10 12 13 15 15 15 16 17 19 22 21 23 25 25
48 44 49 47 51 47 47 48 48 46 44 41 38 34 21 17 15 15 14 14 13 12 12 10 10 11 11 10 9 9 8 9 10 12 13 14 15 16 15 16 18 18 20 20
35 46 51 50 49 51 48 45 44 44 41 38 35 23 14 9 8 7 6 4 5 6 9 9 9 11 11 10 10 12 13 13 13 13 13 13 15 15 16 17 18 18 17 18
9 36 41 38 40 40 41 40 40 38 37 35 25 16 10 6 4 2 2 2 2 4 6 8 10 11 11 11 11 11 12 11 12 12 12 13 15 16 17 19 20 20 20 20
20 27 30 33 28 30 29 32 30 31 33 31 21 13 9 7 6 5 4 1 3 4 6 8 9 9 8 9 10 11 12 13 13 12 13 14 16 18 18 19 22 22 20 16
19 21 22 30 23 26 19 20 21 16 12 12 16 15 9 6 3 3 2 2 5 6 9 10 10 10 11 11 11 11 11 12 13 14 15 15 16 15 16 16 16 15 14 11
8 22 30 26 27 21 16 2 7 12 12 6 12 12 7 4 3 2 2 4 6 8 12 12 12 11 11 14 13 12 13 12 13 14 15 14 15 14 16 15 15 14 12 10
24 20 17 11 6 6 5 5 3 5 3 4 8 7 7 2 1 2 4 6 10 12 14 13 13 12 13 13 14 13 13 13 13 13 13 12 13 13 13 15 15 14 10 9
26 21 22 16 15 14 13 9 10 12 13 17 12 11 8 6 7 6 7 9 14 15 13 13 14 12 13 14 14 13 13 13 12 12 13 15 16 16 15 15 15 14 12 11
27 23 25 22 19 18 16 15 15 16 12 12 12 11 9 14 14 12 11 8 12 13 14 13 13 13 13 14 15 16 15 14 14 15 15 16 17 17 17 17 15 14 14 13
23 24 23 22 18 18 17 14 12 15 15 11 10 11 13 14 12 13 14 14 14 15 16 17 17 17 16 16 15 15 15 15 15 15 16 15 15 16 16 16 16 16 15 15
22 22 23 16 14 12 14 13 15 16 14 14 14 14 11 12 14 15 14 15 17 18 19 20 21 20 18 17 17 16 15 16 16 15 15 16 16 16 16 15 15 16 16 17
23 21 18 20 17 18 15 14 15 14 13 14 16 15 15 16 15 14 15 17 18 18 18 20 20 20 18 18 18 18 17 17 16 16 15 15 16 16 16 17 16 16 16 17
28 22 21 20 19 17 16 17 16 16 14 15 15 15 15 15 15 16 17 18 19 19 19 20 20 19 19 19 18 18 18 18 18 17 16 15 16 16 17 17 18 18 17 17
27 26 25 24 23 22 21 20 19 18 19 19 17 17 16 16 17 17 18 19 19 19 20 20 21 21 20 20 20 20 20 19 20 19 19 18 19 19 19 18 17 16 17 18
Wind_Direction
241 245 244 242 236 236 239 242 221 236 228 225 250 261 272 268 264 268 265 263 259 255 254 258 263 206 200 198 197 194 196 196 198 198 199 199 199 200 199 199 200 201 203 204
239 243 245 243 242 241 243 241 243 236 237 248 254 254 248 251 254 257 260 263 266 260 256 259 268 263 240 206 197 196 193 195 197 200 203 203 204 206 204 205 204 203 204 205
237 241 246 243 240 243 247 247 248 238 250 253 246 251 255 257 261 260 258 265 263 264 261 263 268 275 264 233 212 204 200 199 200 201 205 211 213 213 209 211 213 211 210 210
239 240 239 245 249 250 247 250 253 255 257 257 256 252 254 255 257 254 254 254 255 260 268 267 270 272 272 268 227 217 213 206 205 206 211 221 222 213 218 222 220 221 220 222
237 239 246 244 247 251 251 252 254 255 258 258 257 256 252 256 260 258 256 253 257 259 265 265 268 271 270 264 251 238 234 217 215 214 219 223 222 218 230 239 248 256 259 255
241 238 238 249 254 254 260 252 264 266 265 265 263 255 261 263 264 264 262 261 257 257 256 256 252 267 259 257 251 236 218 212 225 219 217 208 222 254 257 255 254 258 261 266
239 241 244 248 260 260 243 254 271 271 273 272 267 266 268 266 262 266 269 269 269 266 264 258 264 267 259 255 239 211 244 241 243 237 232 237 253 258 259 259 264 261 268 269
241 241 240 253 256 247 263 266 270 273 275 275 276 277 275 270 264 260 261 263 267 271 272 270 270 266 260 247 224 263 254 250 249 246 249 259 264 269 266 262 262 266 270 265
244 244 253 258 254 262 266 267 268 270 275 278 277 278 280 276 271 264 260 263 268 270 273 270 269 265 263 264 262 261 254 251 252 256 258 265 264 267 268 264 269 268 268 269
254 250 254 259 258 261 266 264 270 271 271 275 276 278 280 283 276 267 264 264 268 270 272 271 270 270 270 266 259 260 258 256 255 256 262 262 264 267 268 272 274 281 281 283
259 257 258 258 259 262 265 264 265 269 271 272 276 276 280 278 275 272 268 267 268 270 274 274 270 269 272 270 258 257 261 260 253 258 258 263 272 278 278 282 285 287 289 291
259 262 261 260 259 261 262 264 266 268 269 271 275 276 280 275 275 272 270 266 265 269 271 274 274 271 276 274 270 261 260 256 256 262 263 270 273 281 296 297 296 296 298 299
267 266 263 263 262 263 263 264 265 265 266 269 275 278 277 275 270 268 265 265 265 266 271 278 281 276 281 281 279 271 266 265 267 272 274 277 281 283 287 301 308 306 305 305
253 269 263 262 260 263 265 264 263 262 263 266 274 274 277 273 264 262 263 264 265 268 274 279 284 285 284 285 282 282 283 284 282 282 285 288 291 294 297 300 304 310 316 320
228 245 260 263 261 259 260 260 257 258 259 263 267 258 255 258 263 259 264 278 287 286 286 288 287 290 292 287 283 283 284 286 290 291 293 295 297 300 302 305 306 307 312 319
224 243 249 257 255 253 252 251 252 256 259 260 250 240 222 198 172 142 64 18 321 312 306 294 287 286 289 293 294 296 300 303 302 301 304 304 304 302 303 306 309 309 309 312
154 231 231 242 239 241 245 250 253 255 264 254 200 190 165 167 150 110 87 47 0 337 316 300 300 307 305 307 309 308 307 308 311 312 311 314 314 308 305 306 308 311 316 318
156 167 174 173 210 217 231 241 236 256 264 186 164 169 156 154 151 140 119 31 18 351 334 319 310 306 307 311 314 313 313 312 312 311 314 315 321 324 320 320 323 327 333 343
45 143 142 161 183 183 195 31 178 207 211 169 158 154 134 136 157 116 33 3 337 325 318 322 321 322 317 310 312 314 309 313 317 316 318 323 325 333 324 320 321 327 335 339
31 45 53 48 50 70 84 50 103 48 132 66 53 129 137 174 280 337 330 328 323 317 328 332 323 322 325 330 326 335 331 323 319 323 327 327 325 332 331 322 320 324 324 324
33 38 41 40 54 53 29 14 25 40 50 55 55 63 75 46 16 333 332 348 340 335 333 337 322 323 319 324 334 343 340 337 334 335 332 327 318 323 322 323 323 320 316 318
27 33 35 35 43 47 44 41 38 38 39 29 31 35 39 43 33 30 13 359 8 358 9 354 349 345 338 341 338 331 333 333 331 328 324 325 322 321 318 318 321 318 317 316
14 18 23 30 37 39 37 34 32 28 27 18 22 29 35 37 27 29 25 11 10 7 11 5 355 356 359 352 346 346 341 338 332 330 331 331 332 327 330 330 320 315 312 311
1 8 17 16 22 23 28 22 27 26 23 21 22 17 11 20 24 20 16 16 16 15 11 9 8 7 7 6 9 2 353 357 350 345 341 331 328 329 332 339 339 336 317 311
347 351 353 358 1 7 0 354 4 5 4 7 11 8 10 13 12 1 5 9 5 7 5 3 6 6 3 0 359 359 2 1 1 2 359 353 345 340 339 337 337 340 332 323
350 341 344 350 349 346 349 351 354 354 351 356 357 357 359 357 356 -0 2 1 0 360 358 355 352 355 355 349 345 350 351 344 344 341 341 337 342 347 348 344 340 337 335 333
349 348 354 353 353 352 352 358 355 349 356 359 356 348 342 342 343 343 345 348 347 347 347 347 346 344 342 338 338 340 343 345 341 335 334 332 324 322 325 329 337 344 341 335